Tracking 31027 objects as of 19-Jul-2025
HD Live streaming from Space Station
objects crossing your sky now

SHIJIAN-16 (SJ-16)

Track SHIJIAN-16 (SJ-16) now!
10-day predictions
SHIJIAN-16 (SJ-16) is classified as:


NORAD ID: 39358
Int'l Code: 2013-057A
Perigee: 588.1 km
Apogee: 613.1 km
Inclination: 75.0 °
Period: 96.6 minutes
Semi major axis: 6971 km
RCS: Unknown
Launch date: October 25, 2013
Source: People's Republic of China (PRC)
Launch site: Jiuquan Satellite Launch Center, China (JSC)

SHIJIAN-16 will be used mainly for conducting space environment exploration and technological experiments.
Your satellite tracking list
ATLAS 2A CENTAUR R/B
Track 1 satellite(s)




NASA's NSSDC Master Catalog

Two Line Element Set (TLE):
1 39358U 13057A   25199.92075013  .00001161  00000-0  11876-3 0  9992
2 39358  74.9713 267.3028 0017939 318.5357  41.4468 14.91447784636641
Source of the keplerian elements: AFSPC